Regional Weather Roundup
Issued by NWS Goodland, KS

Home | Current Version | Previous Version | Graphics & Text | Print | Product List | Glossary On
Versions: 1 2 3 4 5 6 7 8 9 10 11 12 13 14 15 16 17 18 19 20 21 22 23 24 25 26 27 28 29 30 31 32 33 34 35 36 37 38 39 40 41 42 43 44 45 46 47 48 49 50
000
ASUS43 KGLD 060308
RWRGLD

GOODLAND FORECAST AREA HOURLY WEATHER ROUNDUP
NATIONAL WEATHER SERVICE GOODLAND KS
800 PM MST FRI FEB 05 2016

...OFFICIAL OBSERVATIONS...

CITY           SKY/WX    TMP DP  RH WIND       PRES   REMARKS
GOODLAND KS    CLEAR     23  15  71 NW13      30.28S WCI  11
HILL CITY KS   CLEAR     29  22  75 NW10      30.28S WCI  20
IMPERIAL NEB   CLEAR     25  16  68 NW13      30.27S WCI  14
MCCOOK NEB     CLEAR     26  20  77 W12       30.27S WCI  16
AKRON CO       CLOUDY    19  11  70 N14       30.27S WCI   6
BURLINGTON CO  CLEAR     20  11  68 NW12      30.28S WCI   8
LIMON CO       CLOUDY    11   4  73 N6        30.30R
$$

...UNOFFICIAL OBSERVATIONS...

CITY           SKY/WX    TMP DP  RH WIND       PRES   REMARKS
COLBY KS       CLEAR     21  19  93 W14       30.29S WCI   8
GOVE KS          N/A     26  32 100 MISG        N/A
LENORA KS        N/A     27  32 100 MISG        N/A
NORTON KS      CLEAR     25  19  80 W10       30.26S WCI  15
SHARON SPRINGS   N/A     20  15  80 NW10        N/A  WCI   9
KIT CARSON CO    N/A     17  11  75 MISG        N/A
YUMA CO          N/A     18  13  79 NW12        N/A  WCI   6
$$



USA.gov is the U.S. government's official web portal to all federal, state and local government web resources and services.